| time (UTC) | temp C | wind direction | speed KPH | gust KPH | rain 1hr cm | rain 24hr cm | rain mn cm | humidity % | barometer mb |
| 20260831205704 | 21 | 95 | 1.6 | 4.8 | 0.00 | 0.00 | 0.00 | 58 | 1009.2 |
| 20260831204704 | 22 | 325 | 1.6 | 3.2 | 0.00 | 0.00 | 0.00 | 59 | 1009.3 |
| 20260831204204 | 22 | 176 | 1.6 | 4.8 | 0.00 | 0.00 | 0.00 | 58 | 1009.4 |
| 20260831203705 | 22 | 311 | 0.0 | 4.8 | 0.00 | 0.00 | 0.00 | 58 | 1009.4 |
| 20260831202704 | 22 | 298 | 1.6 | 3.2 | 0.00 | 0.00 | 0.00 | 58 | 1009.5 |
| 20260831202204 | 22 | 316 | 1.6 | 3.2 | 0.00 | 0.00 | 0.00 | 58 | 1009.6 |
| 20260831201204 | 22 | 328 | 1.6 | 3.2 | 0.00 | 0.00 | 0.00 | 59 | 1009.7 |
| 20260831194204 | 22 | 347 | 1.6 | 3.2 | 0.00 | 0.00 | 0.00 | 59 | 1010.1 |
| 20260831193704 | 22 | 280 | 1.6 | 4.8 | 0.00 | 0.00 | 0.00 | 60 | 1010.1 |
| 20260831193204 | 22 | 321 | 1.6 | 3.2 | 0.00 | 0.00 | 0.00 | 61 | 1010.2 |
| 20260831192205 | 21 | 325 | 1.6 | 3.2 | 0.00 | 0.00 | 0.00 | 62 | 1010.4 |
| 20260831191204 | 20 | 307 | 1.6 | 4.8 | 0.00 | 0.00 | 0.00 | 64 | 1010.6 |
| 20260831185704 | 20 | 319 | 1.6 | 3.2 | 0.00 | 0.00 | 0.00 | 66 | 1010.7 |
| 20260831185204 | 20 | 190 | 1.6 | 3.2 | 0.00 | 0.00 | 0.00 | 66 | 1010.7 |
| 20260831184204 | 18 | 244 | 0.0 | 3.2 | 0.00 | 0.00 | 0.00 | 69 | 1010.9 |
| 20260831181704 | 17 | 301 | 1.6 | 3.2 | 0.00 | 0.00 | 0.00 | 76 | 1011.2 |
| 20260831181204 | 17 | 208 | 0.0 | 3.2 | 0.00 | 0.00 | 0.00 | 75 | 1011.3 |
| 20260831180204 | 17 | 329 | 1.6 | 3.2 | 0.00 | 0.00 | 0.00 | 77 | 1011.3 |
| 20260831175704 | 17 | 101 | 0.0 | 3.2 | 0.00 | 0.00 | 0.00 | 77 | 1011.5 |
| 20260831175204 | 17 | 333 | 0.0 | 3.2 | 0.00 | 0.00 | 0.00 | 78 | 1011.5 |
| 20260831174204 | 16 | 26 | 0.0 | 3.2 | 0.00 | 0.00 | 0.00 | 78 | 1011.7 |
| 20260831173704 | 16 | 242 | 0.0 | 3.2 | 0.00 | 0.00 | 0.00 | 81 | 1011.7 |
| 20260831173204 | 16 | 286 | 1.6 | 3.2 | 0.00 | 0.00 | 0.00 | 80 | 1011.7 |
| 20260831171204 | 16 | 352 | 1.6 | 3.2 | 0.00 | 0.00 | 0.00 | 82 | 1011.8 |
| 20260831170704 | 16 | 239 | 1.6 | 3.2 | 0.00 | 0.00 | 0.00 | 83 | 1011.8 |
| 20260831170204 | 15 | 292 | 1.6 | 4.8 | 0.00 | 0.00 | 0.00 | 83 | 1011.9 |
| 20260831165704 | 15 | 265 | 1.6 | 4.8 | 0.00 | 0.00 | 0.00 | 84 | 1011.9 |
| 20260831165204 | 15 | 331 | 0.0 | 3.2 | 0.00 | 0.00 | 0.00 | 86 | 1011.9 |
| 20260831164204 | 15 | 278 | 0.0 | 3.2 | 0.00 | 0.00 | 0.00 | 86 | 1012.0 |
| 20260831163704 | 15 | 79 | 0.0 | 3.2 | 0.00 | 0.00 | 0.00 | 87 | 1012.0 |
| 20260831162204 | 14 | 101 | 1.6 | 3.2 | 0.00 | 0.00 | 0.00 | 88 | 1012.2 |
| 20260831160704 | 14 | 286 | 1.6 | 3.2 | 0.00 | 0.00 | 0.00 | 90 | 1012.2 |
| 20260831160204 | 13 | 34 | 1.6 | 8.0 | 0.00 | 0.00 | 0.00 | 92 | 1012.2 |
| 20260831154704 | 13 | 312 | 0.0 | 1.6 | 0.00 | 0.00 | 0.00 | 94 | 1012.5 |
| 20260831153704 | 13 | 312 | 0.0 | 3.2 | 0.00 | 0.00 | 0.00 | 94 | 1012.4 |
| 20260831152704 | 13 | 286 | 0.0 | 3.2 | 0.00 | 0.00 | 0.00 | 95 | 1012.6 |
| 20260831151705 | 13 | 296 | 0.0 | 3.2 | 0.00 | 0.00 | 0.00 | 95 | 1012.6 |
| 20260831150204 | 12 | 256 | 0.0 | 1.6 | 0.00 | 0.00 | 0.00 | 94 | 1012.4 |
| 20260831145704 | 12 | 248 | 0.0 | 3.2 | 0.00 | 0.00 | 0.00 | 94 | 1012.4 |
| 20260831144704 | 12 | 239 | 0.0 | 3.2 | 0.00 | 0.00 | 0.00 | 94 | 1012.5 |
| 20260831143704 | 12 | 210 | 0.0 | 3.2 | 0.00 | 0.00 | 0.00 | 94 | 1012.5 |
| 20260831141215 | 12 | 85 | 0.0 | 1.6 | 0.00 | 0.00 | 0.00 | 94 | 1012.4 |
| 20260831135704 | 12 | 87 | 0.0 | 3.2 | 0.00 | 0.00 | 0.00 | 94 | 1012.5 |
| 20260831135204 | 12 | 84 | 0.0 | 3.2 | 0.00 | 0.00 | 0.00 | 94 | 1012.4 |
| 20260831133704 | 12 | 84 | 0.0 | 3.2 | 0.00 | 0.00 | 0.00 | 94 | 1012.3 |
| 20260831133204 | 12 | 17 | 0.0 | 3.2 | 0.00 | 0.00 | 0.00 | 94 | 1012.3 |
| 20260831132704 | 12 | 17 | 0.0 | 3.2 | 0.00 | 0.00 | 0.00 | 94 | 1012.2 |
| 20260831131204 | 12 | 331 | 0.0 | 3.2 | 0.00 | 0.00 | 0.00 | 94 | 1012.2 |
| 20260831130704 | 12 | 352 | 0.0 | 3.2 | 0.00 | 0.00 | 0.00 | 94 | 1012.2 |
| 20260831125704 | 12 | 332 | 0.0 | 3.2 | 0.00 | 0.00 | 0.00 | 94 | 1012.4 |
| 20260831124204 | 12 | 341 | 0.0 | 3.2 | 0.00 | 0.00 | 0.00 | 94 | 1012.4 |
| 20260831123204 | 13 | 341 | 0.0 | 3.2 | 0.00 | 0.00 | 0.00 | 94 | 1012.6 |
| 20260831120704 | 13 | 11 | 0.0 | 3.2 | 0.00 | 0.00 | 0.00 | 93 | 1012.7 |
| 20260831120204 | 13 | 28 | 0.0 | 3.2 | 0.00 | 0.00 | 0.00 | 93 | 1012.7 |
| 20260831115204 | 13 | 2 | 1.6 | 3.2 | 0.00 | 0.00 | 0.00 | 93 | 1012.7 |
| 20260831114204 | 13 | 296 | 0.0 | 1.6 | 0.00 | 0.00 | 0.00 | 93 | 1012.9 |
| 20260831113703 | 13 | 276 | 0.0 | 3.2 | 0.00 | 0.00 | 0.00 | 93 | 1013.0 |
| 20260831113204 | 13 | 303 | 1.6 | 3.2 | 0.00 | 0.00 | 0.00 | 93 | 1013.0 |
| 20260831112704 | 13 | 303 | 0.0 | 1.6 | 0.00 | 0.00 | 0.00 | 93 | 1013.1 |
| 20260831112203 | 13 | 286 | 0.0 | 1.6 | 0.00 | 0.00 | 0.00 | 93 | 1013.2 |
| 20260831110703 | 13 | 84 | 1.6 | 3.2 | 0.00 | 0.00 | 0.00 | 93 | 1013.1 |
| 20260831105704 | 13 | 271 | 0.0 | 3.2 | 0.00 | 0.00 | 0.00 | 93 | 1013.1 |
| 20260831105204 | 13 | 123 | 0.0 | 1.6 | 0.00 | 0.00 | 0.00 | 92 | 1013.2 |
| 20260831104704 | 12 | 123 | 0.0 | 3.2 | 0.00 | 0.00 | 0.00 | 92 | 1013.2 |
| 20260831103204 | 13 | 71 | 0.0 | 1.6 | 0.00 | 0.00 | 0.00 | 92 | 1013.3 |
| 20260831101204 | 13 | 71 | 0.0 | 0.0 | 0.00 | 0.00 | 0.00 | 92 | 1013.5 |
| 20260831095703 | 13 | 22 | 0.0 | 0.0 | 0.00 | 0.00 | 0.00 | 91 | 1013.8 |
| 20260831085704 | 13 | 348 | 0.0 | 3.2 | 0.00 | 0.00 | 0.00 | 91 | 1014.2 |
| 20260831085204 | 13 | 348 | 0.0 | 3.2 | 0.00 | 0.00 | 0.00 | 90 | 1014.2 |
| 20260831084204 | 13 | 91 | 0.0 | 3.2 | 0.00 | 0.00 | 0.00 | 90 | 1014.2 |
| 20260831080704 | 13 | 133 | 0.0 | 3.2 | 0.00 | 0.00 | 0.00 | 90 | 1014.7 |
| 20260831080204 | 13 | 133 | 0.0 | 3.2 | 0.00 | 0.00 | 0.00 | 90 | 1014.7 |
| 20260831075704 | 13 | 140 | 0.0 | 3.2 | 0.00 | 0.00 | 0.00 | 89 | 1014.7 |
| 20260831075204 | 13 | 144 | 0.0 | 3.2 | 0.00 | 0.00 | 0.00 | 89 | 1014.7 |
| 20260831073704 | 13 | 39 | 0.0 | 3.2 | 0.00 | 0.00 | 0.00 | 88 | 1014.6 |
| 20260831073204 | 13 | 39 | 0.0 | 3.2 | 0.00 | 0.00 | 0.00 | 88 | 1014.7 |
| 20260831070204 | 14 | 34 | 0.0 | 3.2 | 0.00 | 0.00 | 0.00 | 87 | 1015.1 |
| 20260831064704 | 14 | 16 | 0.0 | 3.2 | 0.00 | 0.00 | 0.00 | 86 | 1015.3 |
| 20260831064204 | 14 | 16 | 0.0 | 3.2 | 0.00 | 0.00 | 0.00 | 85 | 1015.3 |
| 20260831063204 | 14 | 20 | 0.0 | 3.2 | 0.00 | 0.00 | 0.00 | 84 | 1015.3 |
| 20260831062704 | 15 | 20 | 0.0 | 3.2 | 0.00 | 0.00 | 0.00 | 84 | 1015.4 |
| 20260831062204 | 15 | 66 | 0.0 | 3.2 | 0.00 | 0.00 | 0.00 | 85 | 1015.5 |
| 20260831060704 | 15 | 110 | 0.0 | 3.2 | 0.00 | 0.00 | 0.00 | 84 | 1015.5 |
| 20260831055204 | 15 | 72 | 0.0 | 3.2 | 0.00 | 0.00 | 0.00 | 82 | 1015.7 |
| 20260831054704 | 15 | 72 | 0.0 | 3.2 | 0.00 | 0.00 | 0.00 | 83 | 1015.7 |
| 20260831053704 | 15 | 72 | 0.0 | 1.6 | 0.00 | 0.00 | 0.00 | 82 | 1015.8 |
| 20260831053204 | 15 | 177 | 0.0 | 3.2 | 0.00 | 0.00 | 0.00 | 81 | 1015.9 |
| 20260831051704 | 15 | 214 | 0.0 | 3.2 | 0.00 | 0.00 | 0.00 | 79 | 1016.1 |
| 20260831050704 | 15 | 88 | 0.0 | 3.2 | 0.00 | 0.00 | 0.00 | 80 | 1016.1 |
| 20260831045704 | 15 | 96 | 0.0 | 3.2 | 0.00 | 0.00 | 0.00 | 78 | 1016.2 |
| 20260831043704 | 15 | 70 | 0.0 | 3.2 | 0.00 | 0.00 | 0.00 | 77 | 1016.3 |
| 20260831042204 | 15 | 113 | 0.0 | 3.2 | 0.00 | 0.00 | 0.00 | 76 | 1016.2 |
| 20260831040704 | 16 | 114 | 0.0 | 3.2 | 0.00 | 0.00 | 0.00 | 75 | 1016.2 |
| 20260831035204 | 16 | 119 | 0.0 | 3.2 | 0.00 | 0.00 | 0.00 | 75 | 1016.2 |
| 20260831034204 | 16 | 26 | 0.0 | 3.2 | 0.00 | 0.00 | 0.00 | 75 | 1016.2 |
| 20260831033704 | 16 | 58 | 0.0 | 3.2 | 0.00 | 0.00 | 0.00 | 76 | 1016.2 |
| 20260831032203 | 16 | 48 | 0.0 | 3.2 | 0.00 | 0.00 | 0.00 | 74 | 1016.2 |
| 20260831031704 | 16 | 48 | 0.0 | 3.2 | 0.00 | 0.00 | 0.00 | 75 | 1016.2 |
| 20260831030703 | 17 | 16 | 1.6 | 4.8 | 0.00 | 0.00 | 0.00 | 72 | 1016.2 |
| 20260831030204 | 17 | 48 | 0.0 | 3.2 | 0.00 | 0.00 | 0.00 | 74 | 1016.2 |
| 20260831025704 | 17 | 48 | 0.0 | 3.2 | 0.00 | 0.00 | 0.00 | 74 | 1016.2 |
| 20260831025204 | 17 | 102 | 0.0 | 3.2 | 0.00 | 0.00 | 0.00 | 74 | 1016.2 |
| 20260831024704 | 17 | 137 | 0.0 | 3.2 | 0.00 | 0.00 | 0.00 | 73 | 1016.3 |
| 20260831023704 | 17 | 179 | 0.0 | 3.2 | 0.00 | 0.00 | 0.00 | 70 | 1016.3 |
| 20260831023204 | 17 | 179 | 0.0 | 3.2 | 0.00 | 0.00 | 0.00 | 70 | 1016.3 |
| 20260831022704 | 17 | 179 | 0.0 | 3.2 | 0.00 | 0.00 | 0.00 | 70 | 1016.3 |
| 20260831022203 | 18 | 179 | 0.0 | 3.2 | 0.00 | 0.00 | 0.00 | 70 | 1016.3 |
| 20260831020704 | 18 | 179 | 0.0 | 3.2 | 0.00 | 0.00 | 0.00 | 70 | 1016.4 |
| 20260831015704 | 18 | 185 | 0.0 | 3.2 | 0.00 | 0.00 | 0.00 | 68 | 1016.4 |
| 20260831015204 | 18 | 185 | 0.0 | 1.6 | 0.00 | 0.00 | 0.00 | 67 | 1016.4 |
| 20260831014704 | 19 | 185 | 0.0 | 3.2 | 0.00 | 0.00 | 0.00 | 66 | 1016.5 |
| 20260831014204 | 19 | 185 | 0.0 | 0.0 | 0.00 | 0.00 | 0.00 | 66 | 1016.4 |
| 20260831013703 | 19 | 185 | 0.0 | 3.2 | 0.00 | 0.00 | 0.00 | 64 | 1016.5 |
| 20260831013204 | 19 | 185 | 0.0 | 3.2 | 0.00 | 0.00 | 0.00 | 64 | 1016.5 |
| 20260831012703 | 20 | 185 | 0.0 | 0.0 | 0.00 | 0.00 | 0.00 | 64 | 1016.6 |
| 20260831010704 | 20 | 208 | 0.0 | 1.6 | 0.00 | 0.00 | 0.00 | 61 | 1016.7 |
| 20260831005703 | 20 | 208 | 0.0 | 3.2 | 0.00 | 0.00 | 0.00 | 59 | 1016.8 |
| 20260831005204 | 20 | 178 | 0.0 | 3.2 | 0.00 | 0.00 | 0.00 | 62 | 1016.8 |
| 20260831004704 | 20 | 221 | 0.0 | 3.2 | 0.00 | 0.00 | 0.00 | 59 | 1016.7 |
| 20260831002703 | 20 | 136 | 0.0 | 3.2 | 0.00 | 0.00 | 0.00 | 57 | 1016.9 |
| 20260831002204 | 20 | 211 | 0.0 | 3.2 | 0.00 | 0.00 | 0.00 | 56 | 1016.9 |
| 20260831001203 | 20 | 295 | 0.0 | 3.2 | 0.00 | 0.00 | 0.00 | 59 | 1016.9 |
| 20260831000705 | 20 | 68 | 0.0 | 3.2 | 0.00 | 0.00 | 0.00 | 60 | 1016.9 |
| 20260830234703 | 20 | 13 | 1.6 | 3.2 | 0.00 | 0.00 | 0.00 | 56 | 1017.0 |
| 20260830234207 | 20 | 14 | 0.0 | 3.2 | 0.00 | 0.00 | 0.00 | 57 | 1017.0 |
| 20260830233707 | 20 | 134 | 1.6 | 3.2 | 0.00 | 0.00 | 0.00 | 63 | 1017.1 |
| 20260830232206 | 20 | 69 | 0.0 | 3.2 | 0.00 | 0.00 | 0.00 | 62 | 1017.2 |
| 20260830231706 | 20 | 69 | 0.0 | 3.2 | 0.00 | 0.00 | 0.00 | 61 | 1017.2 |
| 20260830230706 | 20 | 83 | 1.6 | 4.8 | 0.00 | 0.00 | 0.00 | 60 | 1017.3 |
| 20260830225707 | 20 | 145 | 0.0 | 3.2 | 0.00 | 0.00 | 0.00 | 62 | 1017.3 |
| 20260830225206 | 20 | 98 | 0.0 | 3.2 | 0.00 | 0.00 | 0.00 | 62 | 1017.2 |
| 20260830224706 | 20 | 16 | 0.0 | 3.2 | 0.00 | 0.00 | 0.00 | 56 | 1017.2 |
| 20260830222206 | 20 | 246 | 0.0 | 3.2 | 0.00 | 0.00 | 0.00 | 59 | 1017.6 |
| 20260830221706 | 20 | 246 | 0.0 | 3.2 | 0.00 | 0.00 | 0.00 | 56 | 1017.8 |
| 20260830221206 | 20 | 246 | 0.0 | 1.6 | 0.00 | 0.00 | 0.00 | 61 | 1017.8 |
| 20260830215706 | 20 | 194 | 0.0 | 3.2 | 0.00 | 0.00 | 0.00 | 60 | 1017.9 |
| 20260830212706 | 19 | 183 | 0.0 | 3.2 | 0.00 | 0.00 | 0.00 | 63 | 1018.1 |
| 20260830211206 | 19 | 173 | 0.0 | 3.2 | 0.00 | 0.00 | 0.00 | 62 | 1018.2 |
| 20260830210206 | 20 | 275 | 1.6 | 3.2 | 0.00 | 0.00 | 0.00 | 62 | 1018.3 |